Date String (YYYY-MM-DD hh:mm:ss) UTC,Instrument flags,absolute air pressure of the measurement (hPa),sample flow rate (lpm),inlet stack bypass flow (lpm),air temperature of the measurement (°C),ambient temperature measured by the external sensor (°C),aerosol sample conditioner tube jacket temperature (°C),OPC LED temperature (°C),internal box temperature (°C),relative humidity of the measurement (%),span deviation,mass concentration of particles derived from Lorenz-Mie calculation of OPC scattering (μg/m³),mass concentration of particles derived from Lorenz-Mie calculation of OPC scattering (μg/m³),mass concentration of particles derived from Lorenz-Mie calculation of OPC scattering (μg/m³)
DateTimeUTC,F1_M11,P_M11,Q1_M11,Q2_M11,T1_M11,T2_M11,T3_M11,T4_M11,T5_M11,U1_M11,ZSPAN_M11,X0_M11,X2_M11,X1_M11
2024-05-22 13:00:00,SystemResetWarning,0828.7,5.01,000.00,023.4,022.7,000.0,031.6,025.1,014.2,0000.0,0005.04,0002.45,0001.91
2024-05-22 13:01:00,SystemResetWarning,0828.7,4.99,000.00,023.4,022.7,000.0,031.6,025.1,014.2,0000.0,0005.05,0002.47,0001.92
2024-05-22 13:02:00,SystemResetWarning,0828.6,4.99,000.00,023.4,022.7,000.0,031.6,025.1,014.2,0000.0,0004.94,0002.52,0001.93
2024-05-22 13:03:00,SystemResetWarning,0828.6,5.00,000.00,023.4,022.7,000.0,031.6,025.1,013.8,0000.0,0004.94,0002.53,0001.94
2024-05-22 13:04:00,SystemResetWarning,0828.6,5.00,000.00,023.4,022.7,000.0,031.6,025.1,013.6,0000.0,0004.06,0002.55,0001.95
2024-05-22 13:05:00,SystemResetWarning,0828.6,5.01,000.00,023.4,022.7,000.0,031.6,025.1,013.0,0000.0,0004.24,0002.61,0001.95
2024-05-22 13:06:00,SystemResetWarning,0828.6,5.00,000.00,023.4,022.7,000.0,031.6,025.1,013.1,0000.0,0004.75,0002.66,0001.94
2024-05-22 13:07:00,SystemResetWarning,0828.6,4.99,000.00,023.4,022.7,000.0,031.6,025.1,012.5,0000.0,0004.81,0002.64,0001.93
2024-05-22 13:08:00,SystemResetWarning,0828.6,5.00,000.00,023.4,022.8,000.0,031.6,025.2,013.5,0000.0,0004.97,0002.65,0001.90
2024-05-22 13:09:00,SystemResetWarning,0828.6,5.01,000.00,023.4,022.8,000.0,031.6,025.2,013.3,0000.0,0005.32,0002.69,0001.89
2024-05-22 13:10:00,SystemResetWarning,0828.6,5.01,000.00,023.5,022.8,000.0,031.6,025.2,013.0,0000.0,0005.72,0002.67,0001.88
2024-05-22 13:11:00,SystemResetWarning,0828.6,4.99,000.00,023.5,022.8,000.0,031.6,025.2,013.6,0000.0,0005.92,0002.55,0001.84
2024-05-22 13:12:00,SystemResetWarning,0828.6,4.99,000.00,023.5,022.8,000.0,031.6,025.1,013.2,0000.0,0005.96,0002.54,0001.81
2024-05-22 13:13:00,SystemResetWarning,0828.6,5.01,000.00,023.5,022.8,000.0,031.7,025.2,012.9,0000.0,0005.76,0002.41,0001.78
2024-05-22 13:14:00,SystemResetWarning,0828.5,5.01,000.00,023.5,022.8,000.0,031.7,025.2,012.4,0000.0,0005.74,0002.38,0001.76
2024-05-22 13:15:00,SystemResetWarning,0828.6,5.01,000.00,023.5,022.8,000.0,031.7,025.2,012.3,0000.0,0005.75,0002.33,0001.74
2024-05-22 13:16:00,SystemResetWarning,0828.6,4.99,000.00,023.5,022.8,000.0,031.7,025.2,012.7,0000.0,0005.79,0002.30,0001.72
2024-05-22 13:17:00,SystemResetWarning,0828.6,4.99,000.00,023.5,022.8,000.0,031.7,025.2,013.7,0000.0,0005.33,0002.26,0001.71
2024-05-22 13:18:00,SystemResetWarning,0828.6,5.00,000.00,023.5,022.9,000.0,031.7,025.2,013.8,0000.0,0005.32,0002.32,0001.71
2024-05-22 13:19:00,SystemResetWarning,0828.6,5.01,000.00,023.5,022.9,000.0,031.7,025.2,014.2,0000.0,0005.15,0002.29,0001.71
2024-05-22 13:20:00,SystemResetWarning,0828.6,5.00,000.00,023.5,022.9,000.0,031.7,025.2,013.7,0000.0,0004.79,0002.25,0001.71
2024-05-22 13:21:00,SystemResetWarning,0828.6,4.99,000.00,023.5,022.9,000.0,031.7,025.2,013.3,0000.0,0004.31,0002.24,0001.69
2024-05-22 13:22:00,SystemResetWarning,0828.6,5.00,000.00,023.5,022.9,000.0,031.7,025.3,013.5,0000.0,0003.59,0002.24,0001.68
2024-05-22 13:23:00,SystemResetWarning,0828.6,4.99,000.00,023.5,022.9,000.0,031.7,025.3,012.9,0000.0,0003.55,0002.22,0001.66
2024-05-22 13:24:00,SystemResetWarning,0828.6,5.01,000.00,023.5,022.9,000.0,031.7,025.3,012.9,0000.0,0004.03,0002.22,0001.66
2024-05-22 13:25:00,SystemResetWarning,0828.6,5.01,000.00,023.6,022.9,000.0,031.7,025.3,013.9,0000.0,0005.59,0002.25,0001.66
2024-05-22 13:26:00,SystemResetWarning,0828.6,5.01,000.00,023.6,022.9,000.0,031.7,025.3,014.8,0000.0,0005.63,0002.25,0001.65
2024-05-22 13:27:00,SystemResetWarning,0828.5,5.00,000.00,023.6,022.9,000.0,031.8,025.3,015.2,0000.0,0005.44,0002.24,0001.66
2024-05-22 13:28:00,SystemResetWarning,0828.4,5.00,000.00,023.6,022.9,000.0,031.8,025.3,014.7,0000.0,0005.39,0002.21,0001.67
2024-05-22 13:29:00,SystemResetWarning,0828.4,5.00,000.00,023.6,022.9,000.0,031.8,025.3,014.8,0000.0,0005.31,0002.16,0001.66
2024-05-22 13:30:00,SystemResetWarning,0828.4,5.00,000.00,023.6,022.9,000.0,031.8,025.3,014.6,0000.0,0005.51,0002.23,0001.66
2024-05-22 13:31:00,SystemResetWarning,0828.4,5.00,000.00,023.6,022.9,000.0,031.8,025.3,015.1,0000.0,0006.05,0002.24,0001.67
2024-05-22 13:32:00,SystemResetWarning,0828.4,5.00,000.00,023.6,023.0,000.0,031.8,025.3,014.7,0000.0,0006.08,0002.25,0001.68
2024-05-22 13:33:00,SystemResetWarning,0828.4,5.00,000.00,023.6,023.0,000.0,031.8,025.4,013.4,0000.0,0006.06,0002.26,0001.70
2024-05-22 13:34:00,SystemResetWarning,0828.4,5.00,000.00,023.6,023.0,000.0,031.8,025.4,014.0,0000.0,0006.33,0002.24,0001.70
2024-05-22 13:35:00,SystemResetWarning,0828.4,5.00,000.00,023.6,023.0,000.0,031.8,025.4,012.8,0000.0,0006.23,0002.21,0001.70
2024-05-22 13:36:00,SystemResetWarning,0828.3,5.00,000.00,023.7,023.0,000.0,031.8,025.4,013.0,0000.0,0004.54,0002.19,0001.71
2024-05-22 13:37:00,SystemResetWarning,0828.4,5.00,000.00,023.7,023.0,000.0,031.8,025.4,012.7,0000.0,0004.89,0002.25,0001.71
2024-05-22 13:38:00,SystemResetWarning,0828.3,5.01,000.00,023.7,023.0,000.0,031.8,025.4,014.3,0000.0,0005.63,0002.24,0001.69
2024-05-22 13:39:00,SystemResetWarning,0828.2,5.00,000.00,023.7,023.0,000.0,031.9,025.5,014.4,0000.0,0005.57,0002.23,0001.69
2024-05-22 13:40:00,SystemResetWarning,0828.2,5.00,000.00,023.7,023.1,000.0,031.9,025.5,014.3,0000.0,0005.55,0002.21,0001.69
2024-05-22 13:41:00,SystemResetWarning,0828.2,4.99,000.00,023.7,023.1,000.0,031.9,025.5,014.1,0000.0,0005.38,0002.17,0001.70
2024-05-22 13:42:00,SystemResetWarning,0828.2,4.99,000.00,023.7,023.1,000.0,031.9,025.5,012.8,0000.0,0004.97,0002.18,0001.70
2024-05-22 13:43:00,SystemResetWarning,0828.2,5.01,000.00,023.7,023.1,000.0,031.9,025.5,012.7,0000.0,0004.85,0002.16,0001.69
2024-05-22 13:44:00,SystemResetWarning,0828.2,5.01,000.00,023.7,023.1,000.0,031.9,025.5,012.4,0000.0,0004.77,0002.12,0001.67
2024-05-22 13:45:00,SystemResetWarning,0828.2,4.99,000.00,023.7,023.1,000.0,031.9,025.5,012.8,0000.0,0004.45,0002.08,0001.67
2024-05-22 13:46:00,SystemResetWarning,0828.2,4.99,000.00,023.8,023.1,000.0,031.9,025.5,014.5,0000.0,0003.91,0002.05,0001.65
2024-05-22 13:47:00,SystemResetWarning,0828.3,5.01,000.00,023.8,023.1,000.0,031.9,025.5,015.1,0000.0,0004.00,0002.07,0001.65
2024-05-22 13:48:00,SystemResetWarning,0828.2,5.01,000.00,023.8,023.1,000.0,031.9,025.5,014.9,0000.0,0004.00,0002.05,0001.66
2024-05-22 13:49:00,SystemResetWarning,0828.2,5.00,000.00,023.8,023.1,000.0,031.9,025.5,015.6,0000.0,0003.70,0002.00,0001.66
2024-05-22 13:50:00,SystemResetWarning,0828.2,4.98,000.00,023.8,023.1,000.0,031.9,025.5,015.9,0000.0,0004.67,0002.07,0001.70
2024-05-22 13:51:00,SystemResetWarning,0828.1,4.99,000.00,023.8,023.2,000.0,032.0,025.5,016.4,0000.0,0004.61,0002.10,0001.71
2024-05-22 13:52:00,SystemResetWarning,0828.1,5.00,000.00,023.8,023.2,000.0,032.0,025.5,016.1,0000.0,0004.65,0002.13,0001.71
2024-05-22 13:53:00,SystemResetWarning,0828.0,5.00,000.00,023.8,023.2,000.0,032.0,025.5,015.2,0000.0,0005.74,0002.09,0001.71
2024-05-22 13:54:00,SystemResetWarning,0828.0,5.00,000.00,023.8,023.2,000.0,032.0,025.5,016.4,0000.0,0006.02,0002.09,0001.72
2024-05-22 13:55:00,SystemResetWarning,0828.1,5.01,000.00,023.8,023.2,000.0,032.0,025.6,016.2,0000.0,0006.09,0002.11,0001.73
2024-05-22 13:56:00,SystemResetWarning,0828.1,5.00,000.00,023.8,023.2,000.0,032.0,025.6,016.2,0000.0,0006.22,0002.16,0001.74
2024-05-22 13:57:00,SystemResetWarning,0828.1,5.01,000.00,023.9,023.2,000.0,032.0,025.6,015.2,0000.0,0006.52,0002.26,0001.75
2024-05-22 13:58:00,SystemResetWarning,0828.1,5.00,000.00,023.9,023.2,000.0,032.0,025.6,014.8,0000.0,0006.57,0002.30,0001.77
2024-05-22 13:59:00,SystemResetWarning,0828.1,4.99,000.00,023.9,023.2,000.0,032.0,025.6,014.4,0000.0,0006.72,0002.26,0001.78
